Voltar ao catálogo

STARLINK-33584

AtivoComunicaçõesVLEO
NORAD 62761·PAYLOAD·🇺🇸 United States

Lançado Jan 21, 2025 de Vandenberg Space Force Base

Loading…

Próximas Passagens (próximas 24 horas)

TLE

AtualizadoSource: CelesTrak SupGP

Época: Sep 14, 2026, 21:28 UTC

1 62761C 25015D   26257.89493056 -.00039735  00000+0 -11733-2 0  2573
2 62761  53.1571 159.8497 0001200 100.4614 219.0150 15.34427975    14

Acompanhe STARLINK-33584 em tempo real com AllMySat

Download on the App Store